Location: Unspecified
(0.0000°N, 0.0000°E)
Time: 00:00:23
(UTC+00:00)

Explorer 11/Cluster Stage 4 - Visible Passes

Search period start: 16 September 2019 00:00
Search period end: 26 September 2019 00:00
Orbit: 467 x 1260 km, 28.8° (Epoch: 15 September)

Date Brightness Start Highest point End Pass type
(mag) Time Alt. Az. Time Alt. Az. Time Alt. Az.
16 Sep 8.0 18:12:42 10° SW 18:19:40 35° SSE 18:25:39 10° E visible
16 Sep 7.2 20:01:51 10° WSW 20:08:06 62° WNW 20:08:06 62° WNW visible
17 Sep 7.2 19:51:03 10° WSW 19:58:15 59° NNW 19:58:42 57° NNW visible
18 Sep 8.7 05:06:29 10° NNE 05:07:02 10° NNE 05:07:34 10° NE visible
18 Sep 7.7 19:40:19 10° WSW 19:47:31 50° NNW 19:49:19 40° N visible
19 Sep 8.3 04:54:46 10° N 04:56:32 13° NNE 04:58:21 10° ENE visible
19 Sep 8.0 19:29:37 10° W 19:36:47 42° NNW 19:39:54 27° NNE visible
20 Sep 8.1 04:43:41 10° N 04:46:01 16° NNE 04:48:29 10° ENE visible
20 Sep 8.4 19:18:59 10° W 19:26:02 37° NNW 19:30:27 18° NNE visible
21 Sep 7.8 04:33:31 14° N 04:35:31 20° NNE 04:38:26 10° E visible
21 Sep 8.7 19:08:25 10° W 19:15:17 32° NNW 19:20:57 11° NNE visible
22 Sep 7.2 04:24:06 23° N 04:25:02 26° NNE 04:28:15 10° E visible
22 Sep 8.9 18:57:56 10° W 19:04:32 28° NNW 19:10:26 10° NNE visible
23 Sep 6.8 04:14:42 34° NE 04:14:42 34° NE 04:17:59 10° E visible
23 Sep 9.1 18:47:31 10° W 18:53:48 25° NNW 18:59:32 10° NNE visible
24 Sep 7.1 04:05:16 33° E 04:05:16 33° E 04:07:39 10° ESE visible
24 Sep 9.3 18:37:12 10° WNW 18:43:06 22° NNW 18:48:35 10° NNE visible
25 Sep 7.9 03:55:48 22° ESE 03:55:48 22° ESE 03:57:15 10° ESE visible
25 Sep 9.4 18:26:59 10° WNW 18:32:25 19° NNW 18:37:34 10° NNE visible
